JBU887 KJFK-TNCM

Flight info

Callsign JBU887
Flight time N/A
Altitude 37000
Route SHIPP Y492 SQUAD/M076F370 DCT DARUX L456 HANCY/N0441F370 L456 THANK DCT SLUGO
Aircraft A320/M-SDE3FGHIRWY/LB1

Departure

Time 2026-05-08 21:00
Airport John F. Kennedy International Airport (KJFK)

Arrival

Time N/A
Airport Princess Juliana International Airport (TNCM)
Time Latitude Longitude Altitude Speed Heading
2026-05-08 20:44 40.63612 -73.78020 22 ft 0 kts 263°
2026-05-08 20:51 40.63612 -73.78013 22 ft 2 kts 263°
2026-05-08 20:51 40.63614 -73.77993 22 ft 2 kts 263°
2026-05-08 20:52 40.63615 -73.77981 22 ft 1 kts 257°
2026-05-08 20:52 40.63620 -73.77971 22 ft 2 kts 214°
2026-05-08 20:52 40.63629 -73.77966 22 ft 0 kts 178°
2026-05-08 20:52 40.63636 -73.77968 22 ft 1 kts 172°
2026-05-08 20:53 40.63637 -73.77968 22 ft 0 kts 173°
2026-05-08 20:57 40.63624 -73.77966 22 ft 3 kts 173°
2026-05-08 20:57 40.63597 -73.77956 22 ft 5 kts 138°
2026-05-08 20:57 40.63578 -73.77905 22 ft 7 kts 104°
2026-05-08 20:58 40.63559 -73.77837 22 ft 9 kts 120°
2026-05-08 20:58 40.63504 -73.77827 22 ft 8 kts 215°
2026-05-08 20:58 40.63454 -73.77869 22 ft 9 kts 213°
2026-05-08 20:58 40.63405 -73.77959 22 ft 18 kts 259°
2026-05-08 20:59 40.63439 -73.78113 22 ft 17 kts 293°
2026-05-08 20:59 40.63382 -73.78226 22 ft 16 kts 212°
2026-05-08 20:59 40.63329 -73.78338 22 ft 22 kts 292°
2026-05-08 20:59 40.63515 -73.78766 22 ft 85 kts 300°
2026-05-08 21:00 40.63918 -73.79651 22 ft 139 kts 300°
2026-05-08 21:00 40.64482 -73.80869 230 ft 165 kts 300°
2026-05-08 21:00 40.65032 -73.82151 921 ft 159 kts 288°
2026-05-08 21:00 40.65100 -73.83562 1526 ft 160 kts 258°
2026-05-08 21:01 40.64520 -73.84834 1981 ft 172 kts 227°
2026-05-08 21:01 40.63511 -73.85813 2246 ft 191 kts 213°
2026-05-08 21:01 40.62170 -73.86397 2496 ft 217 kts 191°
2026-05-08 21:01 40.60576 -73.86194 2814 ft 244 kts 163°
2026-05-08 21:02 40.59123 -73.84882 3130 ft 271 kts 130°
2026-05-08 21:02 40.58145 -73.82683 3612 ft 284 kts 118°
2026-05-08 21:02 40.57217 -73.80379 4309 ft 288 kts 120°
2026-05-08 21:02 40.56261 -73.78082 5028 ft 291 kts 120°
2026-05-08 21:03 40.55265 -73.75736 5771 ft 294 kts 121°
2026-05-08 21:03 40.54265 -73.73412 6445 ft 297 kts 121°
2026-05-08 21:03 40.53231 -73.71027 6865 ft 300 kts 122°
2026-05-08 21:03 40.52195 -73.68645 7199 ft 306 kts 122°
2026-05-08 21:04 40.51137 -73.66215 7913 ft 310 kts 122°
2026-05-08 21:04 40.50061 -73.63750 8704 ft 312 kts 122°
2026-05-08 21:04 40.48986 -73.61285 9317 ft 317 kts 122°
2026-05-08 21:04 40.47873 -73.58740 9985 ft 322 kts 122°
2026-05-08 21:05 40.46748 -73.56179 10460 ft 333 kts 122°
2026-05-08 21:05 40.45576 -73.53507 10773 ft 347 kts 122°
2026-05-08 21:05 40.44353 -73.50719 11338 ft 353 kts 121°
2026-05-08 21:05 40.43138 -73.47942 11862 ft 357 kts 121°
2026-05-08 21:06 40.41885 -73.45084 12446 ft 361 kts 121°
2026-05-08 21:06 40.40638 -73.42242 13023 ft 364 kts 121°
2026-05-08 21:06 40.39379 -73.39379 13581 ft 367 kts 121°
2026-05-08 21:06 40.38090 -73.36446 14110 ft 372 kts 121°
2026-05-08 21:07 40.36801 -73.33515 14617 ft 376 kts 121°
2026-05-08 21:07 40.35474 -73.30503 15088 ft 380 kts 121°
2026-05-08 21:07 40.34155 -73.27518 15581 ft 383 kts 121°
2026-05-08 21:07 40.32809 -73.24511 16038 ft 387 kts 123°
2026-05-08 21:08 40.31342 -73.21502 16476 ft 391 kts 124°
2026-05-08 21:08 40.29861 -73.18532 16924 ft 395 kts 124°
2026-05-08 21:08 40.28362 -73.15542 17343 ft 398 kts 124°
2026-05-08 21:08 40.26826 -73.12475 17789 ft 402 kts 124°
2026-05-08 21:09 40.25286 -73.09393 18212 ft 406 kts 125°
2026-05-08 21:09 40.23751 -73.06317 18643 ft 409 kts 125°
2026-05-08 21:09 40.22201 -73.03219 19074 ft 412 kts 125°
2026-05-08 21:09 40.20618 -73.00056 19529 ft 415 kts 125°
2026-05-08 21:10 40.19045 -72.96915 19948 ft 418 kts 126°
2026-05-08 21:10 40.17456 -72.93750 20354 ft 421 kts 126°